This is the latest recevied weather packets stored in our database for station/object KG4YZY-1. If no packets are shown the sender has not sent any weather packets the latest 10 day(s).
| Time | Temp. | Humidity | Pressure | Rain* | Wind** | Luminosity | Snow |
|---|---|---|---|---|---|---|---|
| 1778003704 | 27.78° C | 62% | 1017.2 hPa | 0 mm | - | - | - |
| 1778003404 | 27.78° C | 61% | 1017.3 hPa | 0 mm | - | - | - |
| 1778003104 | 27.78° C | 61% | 1017.3 hPa | 0 mm | - | - | - |
| 1778002804 | 28.33° C | 59% | 1017.3 hPa | 0 mm | - | - | - |
| 1778002504 | 28.33° C | 57% | 1017.4 hPa | 0 mm | - | - | - |
| 1778002203 | 28.89° C | 55% | 1017.6 hPa | 0 mm | - | - | - |
| 1778001904 | 30° C | 53% | 1017.5 hPa | 0 mm | - | - | - |
| 1778001604 | 30.56° C | 50% | 1017.5 hPa | 0 mm | - | - | - |
| 1778001304 | 31.11° C | 49% | 1017.5 hPa | 0 mm | - | - | - |
| 1778001003 | 31.11° C | 50% | 1017.5 hPa | 0 mm | - | - | - |
| 1778000703 | 30.56° C | 52% | 1017.6 hPa | 0 mm | - | - | - |
| 1778000404 | 30.56° C | 50% | 1017.7 hPa | 0 mm | - | - | - |
| 1778000103 | 30.56° C | 51% | 1017.7 hPa | 0 mm | - | - | - |
| 1777999803 | 30° C | 51% | 1017.8 hPa | 0 mm | - | - | - |
| 1777999504 | 30° C | 52% | 1017.8 hPa | 0 mm | - | - | - |
| 1777999203 | 30° C | 54% | 1017.8 hPa | 0 mm | - | - | - |
| 1777998904 | 30° C | 52% | 1017.8 hPa | 0 mm | - | - | - |
| 1777998603 | 30° C | 53% | 1017.9 hPa | 0 mm | - | - | - |
| 1777998303 | 29.44° C | 52% | 1017.9 hPa | 0 mm | - | - | - |
| 1777998003 | 29.44° C | 54% | 1017.8 hPa | 0 mm | - | - | - |
| 1777997703 | 29.44° C | 53% | 1017.9 hPa | 0 mm | - | - | - |
| 1777997405 | 28.89° C | 53% | 1017.9 hPa | 0 mm | - | - | - |
| 1777997104 | 28.89° C | 55% | 1017.9 hPa | 0 mm | - | - | - |
| 1777996804 | 28.89° C | 56% | 1018 hPa | 0 mm | - | - | - |
| 1777996503 | 28.89° C | 56% | 1018 hPa | 0 mm | - | - | - |
* Rain latest hour (hover to see other rain measurements)
** Current wind speed in m/s (hover to see current wind gust speed)